This is the latest recevied weather packets stored in our database for station/object YD2CLX-13. If no packets are shown the sender has not sent any weather packets the latest 10 day(s).
| Time | Temp. | Humidity | Pressure | Rain* | Wind** | Luminosity | Snow |
|---|---|---|---|---|---|---|---|
| 1777754664 | 7.78° C | 69% | 796.2 hPa | 0 mm | - | - | - |
| 1777754049 | 7.78° C | 69% | 796.3 hPa | 0 mm | - | - | - |
| 1777753434 | 8.33° C | 70% | 796.3 hPa | 0 mm | - | - | - |
| 1777752818 | 8.33° C | 70% | 796.4 hPa | 0 mm | - | - | - |
| 1777751589 | 8.89° C | 70% | 796.6 hPa | 0 mm | - | - | - |
| 1777750357 | 9.44° C | 70% | 796.6 hPa | 0 mm | - | - | - |
| 1777749744 | 8.89° C | 70% | 796.6 hPa | 0 mm | - | - | - |
| 1777749128 | 9.44° C | 70% | 796.6 hPa | 0 mm | - | - | - |
| 1777748512 | 8.89° C | 70% | 796.8 hPa | 0 mm | - | - | - |
| 1777747897 | 8.89° C | 70% | 796.7 hPa | 0 mm | - | - | - |
| 1777747281 | 8.89° C | 70% | 796.7 hPa | 0 mm | - | - | - |
| 1777746666 | 9.44° C | 70% | 796.7 hPa | 0 mm | - | - | - |
| 1777745435 | 9.44° C | 70% | 796.9 hPa | 0 mm | - | - | - |
| 1777744819 | 9.44° C | 70% | 796.9 hPa | 0 mm | - | - | - |
| 1777744204 | 9.44° C | 70% | 797 hPa | 0 mm | - | - | - |
| 1777743589 | 10° C | 70% | 797.1 hPa | 0 mm | - | - | - |
| 1777742974 | 10° C | 70% | 797.1 hPa | 0 mm | - | - | - |
| 1777742359 | 9.44° C | 70% | 797.3 hPa | 0 mm | - | - | - |
| 1777741743 | 9.44° C | 70% | 797.4 hPa | 0 mm | - | - | - |
| 1777741128 | 10° C | 70% | 797.5 hPa | 0 mm | - | - | - |
| 1777740513 | 10° C | 70% | 797.7 hPa | 0 mm | - | - | - |
| 1777739897 | 10° C | 69% | 797.5 hPa | 0 mm | - | - | - |
| 1777739282 | 10° C | 69% | 797.7 hPa | 0 mm | - | - | - |
| 1777738050 | 10° C | 69% | 797.9 hPa | 0 mm | - | - | - |
| 1777737434 | 10° C | 69% | 797.9 hPa | 0 mm | - | - | - |
* Rain latest hour (hover to see other rain measurements)
** Current wind speed in m/s (hover to see current wind gust speed)